Safford, AZ

8:06 PM MST on April 21, 2018 (GMT -0700)
Safford Regional

Weather History for KSAD - August, 2013

Change the Weather History Date:

Sunday, August 25, 2013

  Actual Average Record
Temperature  
Mean Temperature 80 °F -  
Max Temperature 91 °F 94 °F 105 °F (1953)
Min Temperature 70 °F 63 °F 55 °F (1989)
Cooling Degree Days 16    
Growing Degree Days 30 (Base 50)    
Moisture  
Dew Point 66 °F    
Average Humidity 68    
Maximum Humidity 90    
Minimum Humidity 38    
Precipitation  
Precipitation 0.01 in - - ()
Sea Level Pressure  
Sea Level Pressure 29.94 in    
Wind  
Wind Speed 5 mph (SSE)    
Max Wind Speed 14 mph    
Max Gust Speed 17 mph    
Visibility 10 miles    
Events Rain , Thunderstorm    
Averages and records for this station are not official NWS values.
T = Trace of Precipitation, MM = Missing Value Source: NWS Daily Summary

Daily Weather History Graph

Daily Weather History Graph

Search for Another Location

Airport or City:

Astronomy

Aug. 25, 2013 Rise Set
Actual Time 5:48 AM MST 6:51 PM MST
Civil Twilight 5:23 AM MST 7:17 PM MST
Nautical Twilight 4:53 AM MST 7:47 PM MST
Astronomical Twilight 4:21 AM MST 8:18 PM MST
Moon 9:45 PM MST (8/25) 10:34 AM MST (8/25)
Length of Visible Light 13h 53m
Length of Day
13h 02m
Waning Gibbous, 75% of the Moon is Illuminated
Aug 25
Waning Gibbous
Aug 28
Last Quarter
Sep 5
New
Sep 12
First Quarter
Sep 19
Full

Hourly Weather History & Observations

Time (MST) Temp. Heat Index Dew Point Humidity Pressure Visibility Wind Dir Wind Speed Gust Speed Precip Events Conditions
12:51 AM 71.1 °F - 66.9 °F 87% 29.93 in 10.0 mi Calm Calm - N/A   Scattered Clouds
1:51 AM 71.1 °F - 66.9 °F 87% 29.93 in 10.0 mi South 3.5 mph - N/A   Scattered Clouds
2:51 AM 73.0 °F - 64.9 °F 76% 29.91 in 10.0 mi ESE 8.1 mph - N/A   Clear
3:51 AM 71.1 °F - 66.0 °F 84% 29.91 in 10.0 mi SE 5.8 mph - N/A   Clear
4:51 AM 70.0 °F - 66.0 °F 87% 29.93 in 10.0 mi ESE 5.8 mph - N/A   Clear
5:51 AM 70.0 °F - 66.9 °F 90% 29.94 in 10.0 mi SE 4.6 mph - N/A   Clear
6:51 AM 72.0 °F - 66.0 °F 81% 29.97 in 10.0 mi SE 4.6 mph - N/A   Mostly Cloudy
7:51 AM 73.0 °F - 66.0 °F 79% 29.98 in 10.0 mi SE 5.8 mph - N/A   Scattered Clouds
8:51 AM 75.0 °F - 66.0 °F 73% 29.99 in 10.0 mi SE 4.6 mph - 0.00 in Rain Light Rain
9:51 AM 77.0 °F - 64.9 °F 66% 29.99 in 10.0 mi SSE 5.8 mph - 0.00 in   Partly Cloudy
10:51 AM 81.0 °F 82.5 °F 64.0 °F 56% 29.97 in 10.0 mi ESE 5.8 mph - N/A   Clear
11:51 AM 82.9 °F 84.4 °F 64.0 °F 53% 29.95 in 10.0 mi South 5.8 mph - N/A   Clear
12:51 PM 87.1 °F 88.9 °F 64.9 °F 48% 29.92 in 10.0 mi South 10.4 mph - N/A   Clear
1:51 PM 91.0 °F 91.9 °F 63.0 °F 39% 29.86 in 10.0 mi SE 9.2 mph - N/A   Clear
2:13 PM 91.4 °F 92.1 °F 62.6 °F 38% 30.02 in 10.0 mi South 11.5 mph 17.3 mph N/A Thunderstorm Partly Cloudy
2:42 PM 80.6 °F 82.7 °F 66.2 °F 61% 30.02 in 10.0 mi South 8.1 mph - 0.00 in Rain Light Rain
2:51 PM 84.0 °F 85.8 °F 64.9 °F 53% 29.86 in 10.0 mi SSW 3.5 mph - 0.00 in Rain Light Rain
3:51 PM 89.1 °F 89.0 °F 61.0 °F 39% 29.83 in 10.0 mi South 3.5 mph - 0.00 in   Partly Cloudy
4:51 PM 89.1 °F 89.0 °F 61.0 °F 39% 29.82 in 10.0 mi SSE 3.5 mph - N/A   Partly Cloudy
5:51 PM 84.9 °F 87.1 °F 66.0 °F 53% 29.84 in 10.0 mi ENE 4.6 mph - 0.00 in   Mostly Cloudy
6:51 PM 84.0 °F 87.0 °F 68.0 °F 58% 29.86 in 10.0 mi WNW 9.2 mph - N/A   Overcast
7:33 PM 80.6 °F 82.7 °F 66.2 °F 61% 30.02 in 10.0 mi WNW 10.4 mph - N/A Thunderstorm Overcast
7:51 PM 79.0 °F - 66.0 °F 64% 29.90 in 10.0 mi West 13.8 mph - 0.00 in Rain , Thunderstorm Light Rain
8:04 PM 75.2 °F - 69.8 °F 83% 30.05 in 7.0 mi NNW 10.4 mph - 0.01 in Rain Light Rain
8:11 PM 75.2 °F - 69.8 °F 83% 30.06 in 10.0 mi North 6.9 mph - 0.01 in Rain , Thunderstorm Light Rain
8:42 PM 75.2 °F - 66.2 °F 73% 30.06 in 10.0 mi NNW 8.1 mph - 0.01 in   Clear
8:51 PM 75.9 °F - 68.0 °F 76% 29.92 in 10.0 mi WNW 10.4 mph - 0.01 in   Clear
9:51 PM 73.9 °F - 66.9 °F 79% 29.92 in 10.0 mi WNW 10.4 mph - N/A   Overcast
10:51 PM 73.9 °F - 66.9 °F 79% 29.92 in 10.0 mi North 4.6 mph - N/A   Overcast
11:51 PM 73.0 °F - 66.9 °F 81% 29.91 in 10.0 mi Calm Calm - N/A   Clear